{"data":{"norad_id":65429,"epoch":"2026-05-24T16:10:28.471296Z","epoch_age_seconds":93306,"freshness":"FRESH","line1":"1 65429U 25192AB  26144.67394064  .00010938  00000+0  38087-3 0  9990","line2":"2 65429  53.1583 239.6963 0001281  91.5837 268.5310 15.30199137 41016","mean_motion":15.30199137,"eccentricity":0.0001281,"inclination_deg":53.1583,"raan_deg":239.6963,"arg_perigee_deg":91.5837,"mean_anomaly_deg":268.531,"bstar":0.00038087,"rev_number":4101,"period_min":94.105398779871,"perigee_km":474.3397314528,"apogee_km":476.09556091315,"semimajor_km":6853.354646183,"source":"CELESTRAK","updated_at":"2026-05-25T13:38:20.804728Z"}}